Regional Weather Roundup
Issued by NWS Wilmington, NC

Home | Current Version | Previous Version | Text Only | Print | Product List | Glossary On
Versions: 1 2 3 4 5 6 7 8 9 10 11 12 13 14 15 16 17 18 19 20 21 22 23 24 25 26 27 28 29 30 31 32 33 34 35 36 37 38 39 40 41 42 43 44 45 46 47 48 49 50
000
ASUS42 KILM 130910
RWRILM
RWRILM
REGIONAL HOURLY WEATHER ROUNDUP
NATIONAL WEATHER SERVICE WILMINGTON NC
500 AM EDT SUN JUL 13 2014

NOTE: "FAIR" INDICATES FEW OR NO CLOUDS BELOW 12,000 FEET WITH NO
SIGNIFICANT WEATHER AND/OR OBSTRUCTIONS TO VISIBILITY.

...............WFO WILMINGTON COUNTY WARNING AREA...............

......COASTAL NC AND SC COUNTIES......

CITY           SKY/WX    TMP DP  RH WIND       PRES   REMARKS
WILMINGTON     CLEAR     73  71  93 CALM      30.14R
SOUTHPORT      PTCLDY    78  72  82 SW3       30.13S
N MYRTLE BEACH MOCLDY    75  71  87 NW5       30.13S
MYRTLE BEACH   PTCLDY    73  70  88 CALM      30.14R

......INLAND NC AND SC COUNTIES.......

CITY           SKY/WX    TMP DP  RH WIND       PRES   REMARKS
LUMBERTON      CLEAR     71  70  96 CALM      30.14R
ELIZABETHTOWN  CLEAR     71  71 100 CALM      30.15R
WHITEVILLE     CLEAR     70  69  96 CALM      30.15R
FLORENCE       PTCLDY    72  70  93 S3        30.14R
DARLINGTON     CLEAR     72  66  83 CALM      30.15S

....................REST OF NORTH CAROLINA......................

.........EASTERN NC.........

CITY           SKY/WX    TMP DP  RH WIND       PRES   REMARKS
CAPE HATTERAS  CLEAR     70  68  93 W5        30.14S
JACKSONVILLE   MOCLDY    68  64  88 CALM      30.15S
MOREHEAD CITY  PTCLDY    73  71  93 NE3       30.14R
KENANSVILLE    CLEAR     68  67  95 CALM      30.16R
NEW BERN       CLOUDY    70  66  88 CALM      30.16R FOG
ELIZABETH CITY CLEAR     66  66 100 CALM      30.15R FOG

.........CENTRAL NC.........

CITY           SKY/WX    TMP DP  RH WIND       PRES   REMARKS
RALEIGH DURHAM PTCLDY    73  69  87 SW5       30.15R
ROCKY MOUNT    FOG       70  68  93 CALM      30.15S VSB 1/2
ROANOKE RAPIDS NOT AVBL
FAYETTEVILLE   CLEAR     73  71  93 CALM      30.14R
HOFFMAN        CLEAR     70  69  97 NW2       30.16S

.........WESTERN NC.........

CITY           SKY/WX    TMP DP  RH WIND       PRES   REMARKS
CHARLOTTE      CLOUDY    71  67  87 CALM      30.15F
GREENSBORO     MOCLDY    73  67  81 SW5       30.14S
HICKORY        NOT AVBL
BOONE          NOT AVBL
ASHEVILLE      NOT AVBL

.....................REST OF SOUTH CAROLINA.....................

.........EASTERN SC.........

CITY           SKY/WX    TMP DP  RH WIND       PRES   REMARKS
CHARLESTON     PTCLDY    74  72  93 CALM      30.13F
BEAUFORT MCAS  CLEAR     75  73  93 CALM      30.12S
HILTON HEAD    NOT AVBL

.........CENTRAL SC.........

CITY           SKY/WX    TMP DP  RH WIND       PRES   REMARKS
COLUMBIA       CLEAR     74  69  85 CALM      30.13R
ORANGEBURG     CLEAR     73  70  90 CALM      30.14R
SUMTER SHAW    CLEAR     73  72  97 SE3       30.13R

.........WESTERN SC.........

CITY           SKY/WX    TMP DP  RH WIND       PRES   REMARKS
GREENVILLE     NOT AVBL
ROCK HILL      PTCLDY    69  67  93 S3        30.15F
ANDERSON       PTCLDY    70  67  90 CALM      30.14S
CLEMSON        NOT AVBL
GREENWOOD      CLEAR     70  67  90 CALM      30.15S


...................COASTAL AND OFFSHORE REPORTS..................

................LOCAL PIERS AND NC RESERVE................


STATION/POSITION TIME  SKY/WX   TEMP    WIND        PRES    VSBY
                                AIR SEA DIR/SP/G
                 (UTC)          (F)     (DEG/KT/KT) (MB)    (MI)
JOHNY MRCER PIER 0900            77 83  260/  5/  6 1019.9R
NC RESRV MASNBRO 0800            75     280/  2     1020.0S
OCEAN CREST PIER 0900            80 84  220/  8/ 10 1019.3R
SPRINGMAID  PIER 0900            76 83  310/  4/  5 1020.3S


................COASTAL AND OFFSHORE BUOYS................


STATION/POSITION TIME  SKY/WX   TEMP    WIND        PRES    VSBY
                                AIR SEA DIR/SP/G
                 (UTC)          (F)     (DEG/KT/KT) (MB)    (MI)
DIMNDSHOAL 41025 0900                   VRB  4/  6  1020.4F
WVE H/P(F/S)=  2/ 6 SWL H/P/D(F/S/D)=  2/ 70/ 6

CAPE LOOKOUT     0800            79     230/  6/  7 1020.0F
ONSLOW BAY 41036 0800            80 82  230/  8/ 10 1020.6R
5 WRITEBCH 41038 0800            77 82  220/  8/  8 1020.8R
MASONBORO  41110 0900               82                N/A
WVE H/P(F/S)=  2/ 7 WND WVE H/P(F/S)=  2/ 7

WILM HARBR 41108 NOT AVBL
27WRITEBCH 41037 0800            77 82  210/  6/  8 1020.1S
FRYING PAN 41013 NOT AVBL
SUNST NRSH 41024 0800            80     230/  8/ 10 1019.9S
CAPRS NRSH 41029 0800            80     180/  8/ 10   N/A
EDISTO     41004 0900            81 82  170/  8/ 10 1019.1S
WVE H/P(F/S)=  2/ 7 WND WVE H/P(F/S)=  2/ 3 SWL H/P/D(F/S/D)=  2/ 7



..........OFFSHORE BUOYS BEYOND 100 NM OFFSHORE...........
.....IN A TRIANGLE---HAT TO BERMUDA TO BAHAMAS TO HAT.....


STATION/POSITION TIME  SKY/WX   TEMP    WIND        PRES    VSBY
                                AIR SEA DIR/SP/G
                 (UTC)          (F)     (DEG/KT/KT) (MB)    (MI)
150E HAT   41001 NOT AVBL
W BERMUDA  41048 0831            81 82  180/  8/ 10 1020.5F
WVE H/P(F/S)=  3/ 8 WND WVE H/P(F/S)=  2/ 3 SWL H/P/D(F/S/D)=  3/140/ 8

ATLANTIC S 41049 0805            78 83  100/ 14/ 16 1020.3R
WVE H/P(F/S)=  5/ 7 WND WVE H/P(F/S)=  3/ 6 SWL H/P/D(F/S/D)=  3/130/ 7

E BAHAMAS  41046 0756            81 84  100/  8/ 10 1018.2R
WVE H/P(F/S)=  4/ 8 WND WVE H/P(F/S)=  2/ 3 SWL H/P/D(F/S/D)=  3/110/ 8

NE BAHAMAS 41047 0831            82 84  140/  8/ 10 1020.0S
WVE H/P(F/S)=  4/ 9 WND WVE H/P(F/S)=  2/ 4 SWL H/P/D(F/S/D)=  3/130/ 9

120E CANVRL41010 0900            82 83  150/ 14/ 16 1018.8F
WVE H/P(F/S)=  3/ 8 WND WVE H/P(F/S)=  2/ 4 SWL H/P/D(F/S/D)=  2/110/ 8


END



USA.gov is the U.S. government's official web portal to all federal, state and local government web resources and services.